TimePDT,TemperatureF,Dew PointF,Humidity,Sea Level PressureIn,VisibilityMPH,Wind Direction,Wind SpeedMPH,Gust SpeedMPH,PrecipitationIn,Events,Conditions,WindDirDegrees,DateUTC
12:53 AM,46.9,42.1,83,29.87,10.0,Calm,Calm,-,0.00,,Overcast,0,2013-11-02 07:53:00
1:53 AM,46.9,43.0,86,29.86,6.0,Calm,Calm,-,0.01,Rain,Rain,0,2013-11-02 08:53:00
2:53 AM,46.0,44.1,93,29.83,7.0,Calm,Calm,-,0.05,Rain,Light Rain,0,2013-11-02 09:53:00
3:53 AM,46.0,44.1,93,29.76,7.0,Calm,Calm,-,0.04,,Mostly Cloudy,0,2013-11-02 10:53:00
4:53 AM,46.0,44.1,93,29.73,6.0,SW,3.5,-,0.02,Rain,Light Rain,220,2013-11-02 11:53:00
5:53 AM,46.0,44.1,93,29.69,6.0,Calm,Calm,-,0.02,Rain,Light Rain,0,2013-11-02 12:53:00
6:53 AM,46.0,44.1,93,29.68,6.0,Calm,Calm,-,0.01,,Overcast,0,2013-11-02 13:53:00
7:14 AM,46.4,44.6,93,29.68,6.0,NE,3.5,-,N/A,,Overcast,40,2013-11-02 14:14:00
7:53 AM,46.0,44.1,93,29.63,5.0,SE,5.8,-,0.00,,Overcast,130,2013-11-02 14:53:00
8:53 AM,46.9,44.1,90,29.64,9.0,Variable,3.5,-,N/A,,Partly Cloudy,0,2013-11-02 15:53:00
9:53 AM,53.1,45.0,74,29.60,10.0,South,18.4,24.2,N/A,,Scattered Clouds,180,2013-11-02 16:53:00
10:53 AM,57.0,42.1,57,29.61,10.0,SW,18.4,28.8,N/A,,Partly Cloudy,230,2013-11-02 17:53:00
11:53 AM,59.0,35.1,41,29.61,10.0,WSW,20.7,31.1,N/A,,Clear,250,2013-11-02 18:53:00
12:53 PM,57.9,35.1,42,29.65,10.0,WSW,20.7,33.4,N/A,,Clear,250,2013-11-02 19:53:00
1:53 PM,57.0,30.0,36,29.67,10.0,WSW,25.3,39.1,N/A,,Clear,250,2013-11-02 20:53:00
2:53 PM,55.0,28.0,35,29.70,10.0,West,26.5,36.8,N/A,,Scattered Clouds,270,2013-11-02 21:53:00
3:53 PM,52.0,30.0,43,29.72,9.0,West,26.5,36.8,N/A,,Overcast,280,2013-11-02 22:53:00
4:53 PM,51.1,30.0,44,29.75,10.0,West,6.9,20.7,N/A,,Clear,270,2013-11-02 23:53:00
5:53 PM,48.0,30.9,52,29.75,10.0,West,12.7,20.7,N/A,,Scattered Clouds,260,2013-11-03 00:53:00
6:53 PM,46.0,28.9,51,29.78,10.0,NW,10.4,-,N/A,,Scattered Clouds,310,2013-11-03 01:53:00
7:53 PM,48.0,25.0,41,29.80,10.0,West,10.4,-,N/A,,Clear,260,2013-11-03 02:53:00
8:53 PM,46.0,24.1,42,29.82,10.0,West,11.5,-,N/A,,Partly Cloudy,270,2013-11-03 03:53:00
9:53 PM,45.0,24.1,44,29.86,10.0,WSW,4.6,-,N/A,,Clear,240,2013-11-03 04:53:00
10:53 PM,44.1,24.1,45,29.86,10.0,WSW,6.9,-,N/A,,Clear,240,2013-11-03 05:53:00
11:53 PM,44.1,25.0,47,29.86,10.0,WSW,4.6,-,N/A,,Clear,240,2013-11-03 06:53:00